Location: Clermont
(50.2608°N, 4.3172°E)
Time: 15:24:23
(UTC+00:00)

Cosmos 2219 - Pass Details

Date: 13 August 2020
Orbit: 834 x 860 km, 71.1° (Epoch: 19 September)

Event Time Altitude Azimuth Distance (km) Brightness Sun altitude
Exits shadow 23:13:01 31° 99° (E) 1,421 4.2 -25.0°
Drops below altitude 10° 23:17:34 10° 45° (NE) 2,454 6.0 -25.1°
Sets 23:20:14 0° 36° (NE) 3,394 7.0 -25.2°
